Find Starlink 5317

NORAD ID: 55283 Int'l Des: 2023-010 Owner: SPXS Country: US Constellation: starlink operational
LEOCIRCULAR

当前视图

正在加载3D地球...

About Starlink 5317

Starlink 5317 (NORAD 55283) is a starlink constellation satellite (v1.5) launched Jan 19, 2023 by SPXS of US. It operates in LEO, CIRCULAR orbit with a mass of 305.00 kg.

关于 Starlink 5317

正在加载描述...

即将过境

Passes for default location (London). Set your location on the main map for personalized predictions.

高度历史

Loading altitude history...

两行轨道根数

1 55283U 23010Q 26171.34408409 .00000416 00000-0 42661-4 0 9992
2 55283 69.9990 145.5821 0003176 264.8421 95.2375 14.98328945188154
Epoch: Jun 20, 2026 • Age: 37 hours

当前状态

高度 578.3 km
速度 7.57 km/s
星下点 39.48°N, 68.38°E
发射日期 Jan 19, 2023
运行时间 3.4 years
类型 internet

技术详情

分类 Payload
质量 305.00 kg
干质量 290.00 kg
总质量 305.00 kg
长度 0.20 m
直径 2.80 m
跨度 9.00 m
形状 Box + pan
制造商 SPXS
平台类型 Starlink
阶段状态 In Orbit
所有者/国家 SPXS/US

Most Searched